星链-31507 (STARLINK-31507 )

导读 | 豆包AI

STARLINK-31507是美国SpaceX公司星链星座的一员,于北京时间2024年4月5日8点发射。作为低轨通信卫星,它采用平板设计,配备单块太阳能电池阵与氪工质霍尔推进器,搭载Ku/Ka波段通信载荷,具备自主避撞能力,预期寿命5-7年,旨在为全球提供宽带互联网服务,退役后会再入大气层焚毁。

基本信息
目录编号:
59401
目录名称:
STARLINK-31507
国际标识:
2024-064D
轨道中心:
EARTH
卫星名称:
星链-31507
卫星全名:
星链-31507 (STARLINK-31507 )
卫星状态:
在轨 (已飞行755 天)
发射日期:
2024-04-05 UTC
国别 :
美国 (US)
星等 :
--
轨道信息
数据来源 国际轨道数据
星历时间: 2026-04-30T18:50:05+0800
12小时前
查看轨道信息
半长轴: 6861.188km
偏心率: 0.0001028
轨道倾角: 43.003°
近地点辐角 276.551°
升交点赤经 123.713°
平近点角 83.522°
近地点: 482.345km
远地点: 483.757km
周期: 94.267分钟
每日圈数: 15.275795
详细信息
固有亮度:
5
最大亮度:
0.3
卫星平台:
Starlink v2.0 mini
覆盖范围:
全球
运营商:
太空探索技术公司
运营商所在国:
美国
制造商(研发单位):
太空探索技术公司
制造商所在国:
美国
使用方式:
暂无
卫星简介
星链(Starlink)计划是由太空探索技术公司(SpaceX)提出的一个巨型低轨卫星互联网星座项目,计划在2019年至2024年间在太空搭建由约1.2万颗卫星组成的“星链”网络,其中1584颗将部署在地球上空550千米处的近地轨道,并从2020年开始工作。该卫星仍在工作。
2D轨道图
3D轨道图
轨道高度分析图
轨道倾角分析图
轨道综合分析图
查看轨道综合分析图